{"data":{"norad_id":67155,"epoch":"2026-05-25T03:08:57.494400Z","epoch_age_seconds":57533,"freshness":"FRESH","line1":"1 67155U 25301Y   26145.13122100  .00002953  00000+0  41571-3 0  9992","line2":"2 67155  51.8994  92.5763 0001082  71.2684 288.8396 14.79981038 25015","mean_motion":14.79981038,"eccentricity":0.0001082,"inclination_deg":51.8994,"raan_deg":92.5763,"arg_perigee_deg":71.2684,"mean_anomaly_deg":288.8396,"bstar":0.00041571,"rev_number":2501,"period_min":97.29854390202,"perigee_km":628.6257754436,"apogee_km":630.14220298567,"semimajor_km":7007.5209892146,"source":"CELESTRAK","updated_at":"2026-05-25T13:38:06.779064Z"}}